Date String (YYYY-MM-DD hh:mm:ss) UTC,Instrument flags,absolute air pressure of the measurement (hPa),sample flow rate (lpm),inlet stack bypass flow (lpm),air temperature of the measurement (°C),ambient temperature measured by the external sensor (°C),aerosol sample conditioner tube jacket temperature (°C),OPC LED temperature (°C),internal box temperature (°C),relative humidity of the measurement (%),span deviation,mass concentration of particles derived from Lorenz-Mie calculation of OPC scattering (μg/m³),mass concentration of particles derived from Lorenz-Mie calculation of OPC scattering (μg/m³),mass concentration of particles derived from Lorenz-Mie calculation of OPC scattering (μg/m³)
DateTimeUTC,F1_M11,P_M11,Q1_M11,Q2_M11,T1_M11,T2_M11,T3_M11,T4_M11,T5_M11,U1_M11,ZSPAN_M11,X2_M11,X0_M11,X1_M11
2024-03-26 04:00:00,SystemResetWarning,0819.8,4.99,000.00,018.3,017.2,000.0,027.2,020.0,15.2,0000.0,0008.22,0011.76,0008.04
2024-03-26 04:01:00,SystemResetWarning,0819.9,4.99,000.00,018.3,017.1,000.0,027.2,020.0,15.2,0000.0,0008.19,0011.60,0008.01
2024-03-26 04:02:00,SystemResetWarning,0819.8,5.01,000.00,018.3,017.0,000.0,027.2,020.0,15.3,0000.0,0008.16,0011.57,0007.99
2024-03-26 04:03:00,SystemResetWarning,0819.8,5.01,000.00,018.3,017.0,000.0,027.2,020.0,15.3,0000.0,0008.12,0011.53,0007.94
2024-03-26 04:04:00,SystemResetWarning,0819.7,5.00,000.00,018.3,017.2,000.0,027.2,020.1,15.3,0000.0,0008.07,0010.95,0007.91
2024-03-26 04:05:00,SystemResetWarning,0819.7,5.00,000.00,018.4,018.2,000.0,027.3,020.6,15.2,0000.0,0008.06,0011.33,0007.89
2024-03-26 04:06:00,SystemResetWarning,0820.1,5.00,000.00,018.7,019.0,000.0,027.3,021.1,15.0,0000.0,0008.03,0011.36,0007.85
2024-03-26 04:07:00,SystemResetWarning,0820.2,4.99,000.00,018.8,019.0,000.0,027.3,021.0,14.9,0000.0,0007.99,0011.10,0007.82
2024-03-26 04:08:00,SystemResetWarning,0819.9,4.98,000.00,018.8,018.7,000.0,027.3,020.8,14.9,0000.0,0007.96,0011.04,0007.79
2024-03-26 04:09:00,SystemResetWarning,0819.9,5.02,000.00,018.7,018.4,000.0,027.2,020.5,15.0,0000.0,0007.92,0011.10,0007.75
2024-03-26 04:10:00,SystemResetWarning,0819.7,5.01,000.00,018.7,018.0,000.0,027.2,020.3,15.0,0000.0,0007.89,0011.03,0007.72
2024-03-26 04:11:00,SystemResetWarning,0819.7,4.99,000.00,018.6,017.8,000.0,027.2,020.2,15.1,0000.0,0007.87,0010.59,0007.69
2024-03-26 04:12:00,SystemResetWarning,0819.9,5.00,000.00,018.5,017.6,000.0,027.2,020.1,15.2,0000.0,0007.86,0010.85,0007.69
2024-03-26 04:13:00,SystemResetWarning,0819.8,5.01,000.00,018.4,017.4,000.0,027.2,020.0,15.3,0000.0,0007.84,0011.23,0007.69
2024-03-26 04:14:00,SystemResetWarning,0819.9,5.00,000.00,018.4,017.3,000.0,027.2,020.0,15.3,0000.0,0007.82,0011.85,0007.67
2024-03-26 04:15:00,SystemResetWarning,0819.8,4.99,000.00,018.3,017.2,000.0,027.2,020.0,15.4,0000.0,0007.82,0011.93,0007.67
2024-03-26 04:16:00,SystemResetWarning,0819.8,5.00,000.00,018.3,017.1,000.0,027.2,020.0,15.5,0000.0,0007.79,0011.58,0007.64
2024-03-26 04:17:00,SystemResetWarning,0819.9,5.00,000.00,018.3,017.0,000.0,027.2,020.0,15.5,0000.0,0007.77,0011.45,0007.62
2024-03-26 04:18:00,SystemResetWarning,0819.9,5.01,000.00,018.3,017.4,000.0,027.2,020.2,15.5,0000.0,0007.74,0012.05,0007.59
2024-03-26 04:19:00,SystemResetWarning,0819.9,5.01,000.00,018.5,018.4,000.0,027.3,020.8,15.4,0000.0,0007.71,0012.36,0007.55
2024-03-26 04:20:00,SystemResetWarning,0820.1,5.00,000.00,018.7,018.9,000.0,027.3,021.0,15.3,0000.7,0007.69,0012.37,0007.51
2024-03-26 04:21:00,SystemResetWarning,0820.1,4.99,000.00,018.8,018.7,000.0,027.3,020.8,15.3,0000.7,0007.65,0012.27,0007.47
2024-03-26 04:22:00,SystemResetWarning,0820.2,4.99,000.00,018.7,018.4,000.0,027.2,020.6,15.3,0000.0,0007.60,0012.20,0007.42
2024-03-26 04:23:00,SystemResetWarning,0820.1,5.02,000.00,018.7,018.2,000.0,027.2,020.4,15.4,0000.1,0007.56,0011.80,0007.38
2024-03-26 04:24:00,SystemResetWarning,0819.7,5.00,000.00,018.6,018.0,000.0,027.2,020.3,15.4,0000.7,0007.54,0011.31,0007.36
2024-03-26 04:25:00,SystemResetWarning,0819.9,4.99,000.00,018.6,017.8,000.0,027.2,020.2,15.4,0001.7,0007.57,0010.55,0007.37
2024-03-26 04:26:00,SystemResetWarning,0819.7,4.99,000.00,018.5,017.6,000.0,027.2,020.1,15.4,0002.1,0007.56,0010.48,0007.37
2024-03-26 04:27:00,SystemResetWarning,0819.7,5.01,000.00,018.5,017.5,000.0,027.2,020.1,15.3,0002.3,0007.62,0010.61,0007.42
2024-03-26 04:28:00,SystemResetWarning,0819.9,5.00,000.00,018.4,017.4,000.0,027.1,020.0,15.3,0002.4,0007.65,0010.68,0007.43
2024-03-26 04:29:00,SystemResetWarning,0819.6,5.01,000.00,018.4,017.3,000.0,027.2,020.0,15.3,0000.7,0007.67,0010.05,0007.45
2024-03-26 04:30:00,SystemResetWarning,0819.9,5.00,000.00,018.3,017.2,000.0,027.1,020.0,15.3,0000.0,0007.73,0009.64,0007.48
2024-03-26 04:31:00,SystemResetWarning,0820.0,5.00,000.00,018.3,017.2,000.0,027.1,020.0,15.2,0000.0,0007.76,0009.53,0007.51
2024-03-26 04:32:00,SystemResetWarning,0820.2,5.00,000.00,018.3,017.1,000.0,027.1,020.0,15.2,0000.0,0007.81,0009.56,0007.55
2024-03-26 04:33:00,SystemResetWarning,0819.8,5.00,000.00,018.2,017.1,000.0,027.1,020.0,15.2,0000.0,0007.88,0009.90,0007.60
2024-03-26 04:34:00,SystemResetWarning,0820.0,5.01,000.00,018.3,017.4,000.0,027.2,020.2,15.2,0000.0,0007.93,0010.43,0007.64
2024-03-26 04:35:00,SystemResetWarning,0820.2,5.01,000.00,018.5,018.4,000.0,027.3,020.7,15.0,0000.0,0007.97,0010.50,0007.67
2024-03-26 04:36:00,SystemResetWarning,0819.7,4.98,000.00,018.8,019.3,000.0,027.3,021.2,14.8,0000.0,0007.98,0010.51,0007.68
2024-03-26 04:37:00,SystemResetWarning,0820.0,5.00,000.00,018.9,019.2,000.0,027.3,021.2,14.6,0000.0,0007.98,0010.51,0007.68
2024-03-26 04:38:00,SystemResetWarning,0820.2,5.00,000.00,018.9,018.9,000.0,027.3,021.0,14.6,0000.0,0007.98,0010.48,0007.66
2024-03-26 04:39:00,SystemResetWarning,0820.1,5.00,000.00,018.9,018.7,000.0,027.3,020.8,14.6,0000.0,0007.99,0010.48,0007.67
2024-03-26 04:40:00,SystemResetWarning,0820.2,5.00,000.00,018.8,018.4,000.0,027.3,020.6,14.6,0000.0,0008.00,0010.59,0007.68
2024-03-26 04:41:00,SystemResetWarning,0820.2,4.99,000.00,018.8,018.2,000.0,027.3,020.5,14.7,0000.0,0008.02,0010.75,0007.71
2024-03-26 04:42:00,SystemResetWarning,0820.0,5.01,000.00,018.7,018.0,000.0,027.2,020.4,14.7,0000.0,0008.02,0010.76,0007.72
2024-03-26 04:43:00,SystemResetWarning,0820.2,5.01,000.00,018.6,017.9,000.0,027.2,020.3,14.8,0000.0,0008.04,0010.84,0007.74
2024-03-26 04:44:00,SystemResetWarning,0820.1,4.99,000.00,018.6,017.7,000.0,027.2,020.2,14.8,0000.0,0008.08,0010.78,0007.76
2024-03-26 04:45:00,SystemResetWarning,0820.1,4.99,000.00,018.5,017.6,000.0,027.2,020.1,14.9,0000.0,0008.09,0010.17,0007.77
2024-03-26 04:46:00,SystemResetWarning,0820.2,5.01,000.00,018.5,017.5,000.0,027.2,020.1,14.9,0000.0,0008.08,0010.12,0007.77
2024-03-26 04:47:00,SystemResetWarning,0820.2,5.00,000.00,018.4,017.4,000.0,027.2,020.0,15.0,0000.0,0008.08,0010.14,0007.77
2024-03-26 04:48:00,SystemResetWarning,0820.0,4.99,000.00,018.4,017.3,000.0,027.2,020.0,15.0,0000.0,0008.11,0010.24,0007.80
2024-03-26 04:49:00,SystemResetWarning,0820.1,4.99,000.00,018.3,017.2,000.0,027.2,020.0,15.0,0000.0,0008.13,0010.34,0007.82
2024-03-26 04:50:00,SystemResetWarning,0820.0,5.00,000.00,018.3,017.1,000.0,027.2,020.0,15.1,0000.0,0008.12,0010.61,0007.83
2024-03-26 04:51:00,SystemResetWarning,0820.1,5.01,000.00,018.3,017.1,000.0,027.2,020.0,15.1,0000.0,0008.14,0010.53,0007.84
2024-03-26 04:52:00,SystemResetWarning,0820.1,5.01,000.00,018.3,017.4,000.0,027.2,020.2,15.1,0000.0,0008.14,0010.42,0007.85
2024-03-26 04:53:00,SystemResetWarning,0819.9,5.00,000.00,018.5,018.3,000.0,027.3,020.7,15.0,0000.0,0008.15,0010.60,0007.87
2024-03-26 04:54:00,SystemResetWarning,0819.7,5.00,000.00,018.7,019.0,000.0,027.3,021.0,14.7,0000.0,0008.14,0010.87,0007.88
2024-03-26 04:55:00,SystemResetWarning,0819.9,4.99,000.00,018.8,018.8,000.0,027.3,020.9,14.7,0000.0,0008.12,0010.93,0007.89
2024-03-26 04:56:00,SystemResetWarning,0820.1,4.99,000.00,018.7,018.6,000.0,027.2,020.7,14.7,0000.0,0008.11,0010.94,0007.89
2024-03-26 04:57:00,SystemResetWarning,0820.1,5.00,000.00,018.7,018.3,000.0,027.2,020.5,14.7,0000.0,0008.12,0010.94,0007.89
2024-03-26 04:58:00,SystemResetWarning,0820.1,5.01,000.00,018.7,018.1,000.0,027.2,020.4,14.7,0000.0,0008.12,0010.89,0007.89
2024-03-26 04:59:00,SystemResetWarning,0820.1,5.00,000.00,018.6,018.0,000.0,027.2,020.3,14.7,0000.0,0008.11,0010.83,0007.89
